Latest Coastal Weather Observations for Cape Wessel

IDD60701

Issued at 6:41 pm CST Tuesday 16 January 2018 (issued every 10 minutes, with the page automatically refreshed every 10 minutes)

About coastal observations | Map of coastal stations | Coastal observations for NT | Marine services | Other Formats
Station Details ID: 200786 Name: CAPE WESSEL Lat: -11.00 Lon: 136.76 Height: 18.0 m
Data from the previous 72 hours. | See also: Recent months at Cape Wessel
Date/Time
CST
Temp
°C
Wind Pressure Rain since
9am
mm
Weather Cloud Vis
km
Sea
Height
m
Swell
Dir  Spd
kts
Gust
kts
hPa Trend Height
m
Period
s
Dir
16/06:30pm 30.8 NE 5 6 1003.6 - 0.0 - - - - - - -
16/06:00pm 31.1 ENE 5 6 1003.7 - 0.0 - - - - - - -
16/05:30pm 32.0 NE 5 7 1003.4 - 0.0 - - - - - - -
16/05:00pm 32.3 N 6 8 1003.2 - 0.0 - - - - - - -
16/04:30pm 32.8 NNW 5 7 1003.3 - 0.0 - - - - - - -
16/04:00pm 32.8 N 7 8 1003.1 - 0.0 - - - - - - -
16/03:30pm 33.2 N 7 9 1003.1 - 0.0 - - - - - - -
16/03:00pm 33.7 N 8 10 1003.3 - 0.0 - - - - - - -
16/02:30pm 34.0 NNW 7 9 1003.9 - 0.0 - - - - - - -
16/02:00pm 34.0 NNW 7 9 1004.3 - 0.0 - - - - - - -
16/01:30pm 33.8 N 7 9 1004.9 - 0.0 - - - - - - -
16/01:00pm 34.3 NNW 6 9 1005.3 - 0.0 - - - - - - -
16/12:30pm 34.6 NW 8 10 1005.5 - 0.0 - - - - - - -
16/12:00pm 34.2 NNW 8 10 1005.7 - 0.0 - - - - - - -
16/11:30am 34.1 NNW 8 9 1006.1 - 0.0 - - - - - - -
16/11:00am 33.4 NNW 8 10 1006.2 - 0.0 - - - - - - -
16/10:30am 33.3 NNW 7 9 1006.3 - 0.0 - - - - - - -
16/10:00am 33.4 NW 8 9 1006.2 - 0.0 - - - - - - -
16/09:30am 32.9 N 7 9 1006.2 - 0.0 - - - - - - -
16/09:00am 32.6 N 6 8 1006.0 - 0.0 - - - - - - -
16/08:30am 32.1 NNE 5 7 1006.1 - 0.0 - - - - - - -
16/08:00am 30.5 N 6 7 1005.9 - 0.0 - - - - - - -
16/07:30am 30.7 NE 4 5 1005.7 - 0.0 - - - - - - -
16/07:00am 29.3 N 5 6 1005.7 - 0.0 - - - - - - -
16/06:30am 28.5 NNW 5 7 1005.2 - 0.0 - - - - - - -
16/06:00am 28.4 NNW 6 7 1005.0 - 0.0 - - - - - - -
16/05:30am 28.4 NW 5 7 1004.8 - 0.0 - - - - - - -
16/05:00am 28.1 NNW 5 7 1004.6 - 0.0 - - - - - - -
16/04:30am 28.3 NW 6 7 1004.4 - 0.0 - - - - - - -
16/04:00am 28.1 NNW 5 6 1004.4 - 0.0 - - - - - - -
16/03:30am 28.3 NNW 5 7 1004.4 - 0.0 - - - - - - -
16/03:00am 28.3 NNW 6 8 1004.5 - 0.0 - - - - - - -
16/02:30am 28.2 N 5 6 1004.6 - 0.0 - - - - - - -
16/02:00am 28.6 NNW 5 7 1004.9 - 0.0 - - - - - - -
16/01:30am 28.8 NNW 6 7 1005.0 - 0.0 - - - - - - -
16/01:00am 29.1 WNW 7 9 1005.2 - 0.0 - - - - - - -
16/12:30am 29.2 NW 7 9 1005.3 - 0.0 - - - - - - -
16/12:00am 29.0 NNW 5 7 1005.6 - 0.0 - - - - - - -
 
Date/Time
CST
Temp
°C
Wind Pressure Rain since
9am
mm
Weather Cloud Vis
km
Sea
Height
m
Swell
Dir  Spd
kts
Gust
kts
hPa Trend Height
m
Period
s
Dir
15/11:30pm 29.1 NW 6 7 1005.7 - 0.0 - - - - - - -
15/11:00pm 29.2 NW 7 9 1005.7 - 0.0 - - - - - - -
15/10:30pm 29.4 WNW 8 11 1006.0 - 0.0 - - - - - - -
15/10:00pm 29.4 W 9 11 1006.0 - 0.0 - - - - - - -
15/09:30pm 29.4 WNW 8 10 1005.8 - 0.0 - - - - - - -
15/09:00pm 29.5 W 8 9 1005.7 - 0.0 - - - - - - -
15/08:30pm 29.3 WNW 7 9 1005.5 - 0.0 - - - - - - -
15/08:00pm 29.0 NNW 6 9 1004.9 - 0.0 - - - - - - -
15/07:30pm 29.2 NNW 7 8 1004.6 - 0.0 - - - - - - -
15/07:00pm 29.5 NNW 6 8 1004.5 - 0.0 - - - - - - -
15/06:30pm 30.6 WNW 8 10 1004.4 - 0.0 - - - - - - -
15/06:00pm 31.8 NW 7 9 1004.1 - 0.0 - - - - - - -
15/05:30pm 32.5 NW 8 11 1003.7 - 0.0 - - - - - - -
15/05:00pm 32.7 NW 10 13 1003.4 - 0.0 - - - - - - -
15/04:30pm 33.3 NW 8 11 1003.4 - 0.0 - - - - - - -
15/04:00pm 34.0 NW 9 11 1003.4 - 0.0 - - - - - - -
15/03:30pm 33.7 NW 9 12 1003.8 - 0.0 - - - - - - -
15/03:00pm 34.3 NW 10 13 1004.3 - 0.0 - - - - - - -
15/02:30pm 34.5 NW 10 13 1004.8 - 0.0 - - - - - - -
15/02:00pm 32.1 NNW 10 13 1005.0 - 0.0 - - - - - - -
15/01:30pm 34.1 NNW 10 13 1005.4 - 0.0 - - - - - - -
15/01:00pm 34.5 NNW 10 13 1005.8 - 0.0 - - - - - - -
15/12:30pm 34.4 NNW 9 12 1006.1 - 0.0 - - - - - - -
15/12:00pm 34.2 N 10 13 1006.3 - 0.0 - - - - - - -
15/11:30am 33.9 N 10 12 1006.7 - 0.0 - - - - - - -
15/11:00am 33.6 N 9 12 1006.9 - 0.0 - - - - - - -
15/10:30am 33.7 N 8 11 1007.1 - 0.0 - - - - - - -
15/10:00am 33.3 N 7 10 1007.4 - 0.0 - - - - - - -
15/09:30am 33.1 NNW 8 11 1007.4 - 0.0 - - - - - - -
15/09:00am 31.4 NW 8 11 1007.2 - 0.0 - - - - - - -
15/08:30am 31.4 NW 7 9 1007.1 - 0.0 - - - - - - -
15/08:00am 31.5 N 7 9 1007.0 - 0.0 - - - - - - -
15/07:30am 30.8 NNW 7 10 1006.7 - 0.0 - - - - - - -
15/07:00am 29.4 NNW 9 12 1006.5 - 0.0 - - - - - - -
15/06:30am 28.8 NNW 8 11 1006.2 - 0.0 - - - - - - -
15/06:00am 28.6 NNW 9 12 1005.8 - 0.0 - - - - - - -
15/05:30am 28.4 NNW 9 11 1005.5 - 0.0 - - - - - - -
15/05:00am 28.4 NNW 9 11 1005.1 - 0.0 - - - - - - -
15/04:30am 28.2 NNW 7 9 1005.0 - 0.0 - - - - - - -
15/04:00am 28.2 NNW 8 10 1004.9 - 0.0 - - - - - - -
15/03:30am 28.1 NNW 6 8 1004.9 - 0.0 - - - - - - -
15/03:00am 28.3 NNW 7 8 1005.1 - 0.0 - - - - - - -
15/02:30am 28.3 NW 6 8 1005.4 - 0.0 - - - - - - -
15/02:00am 28.1 NNW 6 7 1005.8 - 0.0 - - - - - - -
15/01:30am 28.2 NW 5 6 1006.2 - 0.0 - - - - - - -
15/01:00am 28.1 NNW 5 7 1006.3 - 0.0 - - - - - - -
15/12:30am 28.1 N 5 6 1006.6 - 0.0 - - - - - - -
15/12:00am 28.1 NNW 3 5 1006.9 - 0.0 - - - - - - -
 
Date/Time
CST
Temp
°C
Wind Pressure Rain since
9am
mm
Weather Cloud Vis
km
Sea
Height
m
Swell
Dir  Spd
kts
Gust
kts
hPa Trend Height
m
Period
s
Dir
14/11:30pm 28.0 NNW 4 5 1007.3 - 0.0 - - - - - - -
14/11:00pm 28.1 NNW 3 5 1007.4 - 0.0 - - - - - - -
14/10:30pm 28.1 NNW 4 5 1007.1 - 0.0 - - - - - - -
14/10:00pm 28.0 NE 3 4 1007.1 - 0.0 - - - - - - -
14/09:30pm 27.7 ENE 4 5 1006.8 - 0.0 - - - - - - -
14/09:00pm 27.8 NE 2 4 1006.5 - 0.0 - - - - - - -
14/08:30pm 28.2 CALM 0 4 1006.2 - 0.0 - - - - - - -
14/08:00pm 28.4 CALM 0 0 1006.0 - 0.0 - - - - - - -
14/07:30pm 28.5 CALM 0 0 1005.9 - 0.0 - - - - - - -
14/07:00pm 29.5 CALM 0 3 1005.9 - 0.0 - - - - - - -
14/06:30pm 30.2 N 4 5 1005.9 - 0.0 - - - - - - -
14/06:00pm 31.0 NNW 4 6 1005.7 - 0.0 - - - - - - -
14/05:30pm 31.7 N 5 6 1005.8 - 0.0 - - - - - - -
14/05:00pm 32.2 NNE 5 6 1005.7 - 0.0 - - - - - - -
14/04:30pm 32.0 NE 5 7 1005.8 - 0.0 - - - - - - -
14/04:00pm 33.1 NE 5 7 1005.9 - 0.0 - - - - - - -
14/03:30pm 33.5 NNE 6 8 1006.0 - 0.0 - - - - - - -
14/03:00pm 33.9 NE 6 8 1006.1 - 0.0 - - - - - - -
14/02:30pm 33.9 NE 6 8 1006.5 - 0.0 - - - - - - -
14/02:00pm 33.8 NE 7 9 1006.9 - 0.0 - - - - - - -
14/01:30pm 34.0 ENE 6 8 1007.4 - 0.0 - - - - - - -
14/01:00pm 34.3 ENE 7 9 1007.6 - 0.0 - - - - - - -
14/12:30pm 34.3 E 7 10 1007.8 - 0.0 - - - - - - -
14/12:00pm 33.6 ENE 7 9 1008.2 - 0.0 - - - - - - -
14/11:30am 33.7 ESE 7 9 1008.4 - 0.0 - - - - - - -
14/11:00am 33.6 ESE 6 8 1008.5 - 0.0 - - - - - - -
14/10:30am 33.4 E 6 8 1008.6 - 0.0 - - - - - - -
14/10:00am 33.0 E 5 7 1008.6 - 0.0 - - - - - - -
14/09:30am 32.6 ESE 4 6 1008.4 - 0.0 - - - - - - -
14/09:00am 31.9 ESE 5 6 1008.3 - 0.0 - - - - - - -
14/08:30am 31.2 SSE 4 6 1008.4 - 0.0 - - - - - - -
14/08:00am 30.5 SSE 3 5 1008.5 - 0.0 - - - - - - -
14/07:30am 29.3 ENE 3 5 1008.4 - 0.0 - - - - - - -
14/07:00am 27.6 E 5 5 1008.2 - 0.0 - - - - - - -
14/06:30am 26.3 ESE 5 6 1007.9 - 0.0 - - - - - - -
14/06:00am 26.3 E 5 6 1007.4 - 0.0 - - - - - - -
14/05:30am 26.0 SSW 6 6 1007.0 - 0.0 - - - - - - -
14/05:00am 26.1 SSW 5 6 1006.7 - 0.0 - - - - - - -
14/04:30am 26.3 SSW 5 6 1006.4 - 0.0 - - - - - - -
14/04:00am 26.3 SSW 5 6 1006.5 - 0.0 - - - - - - -
14/03:30am 26.6 SSW 4 5 1006.7 - 0.0 - - - - - - -
14/03:00am 26.8 SSE 5 6 1006.7 - 0.0 - - - - - - -
14/02:30am 26.6 SSE 4 5 1006.9 - 0.0 - - - - - - -
14/02:00am 26.7 SE 3 4 1007.3 - 0.0 - - - - - - -
14/01:30am 26.9 ESE 5 6 1007.7 - 0.0 - - - - - - -
14/01:00am 26.9 ESE 4 5 1008.1 - 0.0 - - - - - - -
14/12:30am 27.2 E 5 6 1008.3 - 0.0 - - - - - - -
14/12:00am 27.2 ESE 5 6 1008.6 - 0.0 - - - - - - -
 
Date/Time
CST
Temp
°C
Wind Pressure Rain since
9am
mm
Weather Cloud Vis
km
Sea
Height
m
Swell
Dir  Spd
kts
Gust
kts
hPa Trend Height
m
Period
s
Dir
13/11:30pm 27.6 E 6 7 1008.6 - 0.0 - - - - - - -
13/11:00pm 27.9 E 7 8 1008.8 - 0.0 - - - - - - -
13/10:30pm 27.9 E 6 8 1008.7 - 0.0 - - - - - - -
13/10:00pm 28.0 E 6 7 1008.8 - 0.0 - - - - - - -
13/09:30pm 28.1 E 7 8 1008.7 - 0.0 - - - - - - -
13/09:00pm 28.1 E 6 8 1008.3 - 0.0 - - - - - - -
13/08:30pm 28.3 E 7 8 1008.2 - 0.0 - - - - - - -
13/08:00pm 28.5 E 6 8 1007.8 - 0.0 - - - - - - -
13/07:30pm 28.6 ENE 6 8 1007.7 - 0.0 - - - - - - -
13/07:00pm 29.0 ENE 5 7 1007.5 - 0.0 - - - - - - -

Other Formats:

Comma delimited format used in spreadsheet applications
http://www.bom.gov.au/fwo/IDD60701/IDD60701.94147.axf

JavaScript Object Notation format (JSON) in row-major order
http://www.bom.gov.au/fwo/IDD60701/IDD60701.94147.json